Portada
METAR-TAF:

METAR-TAF

Aeroports :

Thoothukudi, Índia

latitud: 8-43-27N, longitud: 78-01-33E, altitud: 39 m

Observació

L'informe es va fer fa 39 minuts, a les 07:30 UTC
Vent 14 kt del Sud/Sud-Oest
Temperatura 36°C
Humitat 47%
Pressió 1008 hPa
Visibilitat: 6000 m
Escasses núvols a una alçada de 1600 ft
Núvols disperses a una alçada de 2000 ft

METAR: VOTK 310730Z 21014KT 6000 FEW016 SCT020 36/23 Q1008 NOSIG

Hora: 13:39 (08:09 UTC)


TAF: manca

Observacions i pronòstics meteorològics de més de 4000 aeroports (METAR i TAF).

Les estacions disponibles són els punts grocs i vermells al mapa.

Posi el ratolí al punt desitjat per veure el nom de l'estació.

Feu clic per veure les observacions i els pronòstics meteorològics.

Per canviar el mapa: feu clic els botons verds amb una creu de color negre per apropar; al botó verd amb un guió per allunyar la imatge; o en les fletxes verdes per a mapes adjacents.


METAR-TAF: